Location: Crescent
(42.8242°N, 73.7329°W)
Time: 17:59:02
(UTC+00:00)

Vanguard 1 Rocket - Pass Details

Date: 21 February 2026
Orbit: 653 x 4214 km, 34.3° (Epoch: 8 March)

Event Time Altitude Azimuth Distance (km) Brightness Sun altitude
Rises 22:26:10 0° 276° (W) 5,601 13.0 0.6°
Reaches altitude 10° 22:29:24 10° 270° (W) 4,988 13.0 0.1°
Maximum altitude 22:44:05 45° 204° (SSW) 4,198 11.1 -2.6°
Drops below altitude 10° 23:06:48 10° 142° (SE) 7,403 11.7 -6.7°
Sets 23:13:08 0° 137° (SE) 8,418 12.0 -7.8°
